Time,TemperatureF,DewpointF,PressureIn,WindDirection,WindDirectionDegrees,WindSpeedMPH,WindSpeedGustMPH,Humidity,HourlyPrecipIn,Conditions,Clouds,dailyrainin,SolarRadiationWatts/m^2,SoftwareType,DateUTC
2013-03-20 00:09:00,71.0,45.0,30.25,NW,324,0.0,-999.0,39,-99.99,,,0.00,0,weatherlink.com 1.10,2013-03-20 07:09:00,
2013-03-20 00:24:00,70.1,45.0,30.25,NW,324,0.0,-999.0,41,-99.99,,,0.00,0,weatherlink.com 1.10,2013-03-20 07:24:00,
2013-03-20 00:39:00,69.9,46.0,30.24,NW,324,0.0,-999.0,42,-99.99,,,0.00,0,weatherlink.com 1.10,2013-03-20 07:39:00,
2013-03-20 00:54:00,69.6,45.0,30.25,NW,324,0.0,-999.0,42,-99.99,,,0.00,0,weatherlink.com 1.10,2013-03-20 07:54:00,
2013-03-20 01:09:00,69.1,46.0,30.23,NW,324,0.0,-999.0,44,-99.99,,,0.00,0,weatherlink.com 1.10,2013-03-20 08:09:00,
2013-03-20 01:24:00,68.4,47.0,30.25,NW,324,0.0,-999.0,46,-99.99,,,0.00,0,weatherlink.com 1.10,2013-03-20 08:24:00,
2013-03-20 01:39:00,69.2,45.0,30.24,NW,321,0.0,-999.0,42,-99.99,,,0.00,0,weatherlink.com 1.10,2013-03-20 08:39:00,
2013-03-20 01:54:00,69.2,46.0,30.24,NW,317,0.0,-999.0,43,-99.99,,,0.00,0,weatherlink.com 1.10,2013-03-20 08:54:00,
2013-03-20 02:09:00,69.7,45.0,30.24,NW,311,0.0,-999.0,41,-99.99,,,0.00,0,weatherlink.com 1.10,2013-03-20 09:09:00,
2013-03-20 02:24:00,69.6,45.0,30.24,NW,310,2.0,-999.0,41,-99.99,,,0.00,0,weatherlink.com 1.10,2013-03-20 09:24:00,
2013-03-20 02:39:00,69.5,45.0,30.24,NW,311,5.0,-999.0,41,-99.99,,,0.00,0,weatherlink.com 1.10,2013-03-20 09:39:00,
2013-03-20 02:54:00,69.5,45.0,30.23,NW,310,1.0,-999.0,42,-99.99,,,0.00,0,weatherlink.com 1.10,2013-03-20 09:54:00,
2013-03-20 03:09:00,69.4,46.0,30.21,NW,309,2.0,-999.0,44,-99.99,,,0.00,0,weatherlink.com 1.10,2013-03-20 10:09:00,
2013-03-20 03:24:00,69.0,47.0,30.20,NW,309,0.0,-999.0,45,-99.99,,,0.00,0,weatherlink.com 1.10,2013-03-20 10:24:00,
2013-03-20 03:39:00,69.1,46.0,30.20,NW,309,5.0,-999.0,44,-99.99,,,0.00,0,weatherlink.com 1.10,2013-03-20 10:39:00,
2013-03-20 03:54:00,68.5,47.0,30.20,NW,309,0.0,-999.0,47,-99.99,,,0.00,0,weatherlink.com 1.10,2013-03-20 10:54:00,
2013-03-20 04:09:00,67.4,47.0,30.20,NW,309,0.0,-999.0,48,-99.99,,,0.00,0,weatherlink.com 1.10,2013-03-20 11:09:00,
2013-03-20 04:24:00,67.3,47.0,30.20,NW,309,4.0,-999.0,49,-99.99,,,0.00,0,weatherlink.com 1.10,2013-03-20 11:24:00,
2013-03-20 04:39:00,67.2,47.0,30.21,NW,309,0.0,-999.0,49,-99.99,,,0.00,0,weatherlink.com 1.10,2013-03-20 11:39:00,
2013-03-20 04:54:00,66.4,48.0,30.20,NW,309,0.0,-999.0,51,-99.99,,,0.00,0,weatherlink.com 1.10,2013-03-20 11:54:00,
2013-03-20 05:09:00,66.0,47.0,30.20,NW,309,0.0,-999.0,50,-99.99,,,0.00,0,weatherlink.com 1.10,2013-03-20 12:09:00,
2013-03-20 05:24:00,65.8,46.0,30.21,NW,309,0.0,-999.0,50,-99.99,,,0.00,0,weatherlink.com 1.10,2013-03-20 12:24:00,
2013-03-20 05:39:00,66.9,46.0,30.21,NW,309,0.0,-999.0,47,-99.99,,,0.00,0,weatherlink.com 1.10,2013-03-20 12:39:00,
2013-03-20 05:54:00,66.9,46.0,30.22,NW,309,0.0,-999.0,48,-99.99,,,0.00,0,weatherlink.com 1.10,2013-03-20 12:54:00,
2013-03-20 06:09:00,65.8,46.0,30.23,NW,309,0.0,-999.0,50,-99.99,,,0.00,0,weatherlink.com 1.10,2013-03-20 13:09:00,
2013-03-20 06:24:00,65.5,46.0,30.22,NW,309,0.0,-999.0,50,-99.99,,,0.00,0,weatherlink.com 1.10,2013-03-20 13:24:00,
2013-03-20 06:39:00,64.7,46.0,30.22,NW,309,0.0,-999.0,52,-99.99,,,0.00,0,weatherlink.com 1.10,2013-03-20 13:39:00,
2013-03-20 06:55:00,63.6,46.0,30.23,NW,309,0.0,-999.0,54,-99.99,,,0.00,5,weatherlink.com 1.10,2013-03-20 13:55:00,
2013-03-20 07:10:00,63.3,47.0,30.22,NW,309,0.0,-999.0,56,-99.99,,,0.00,21,weatherlink.com 1.10,2013-03-20 14:10:00,
2013-03-20 07:25:00,63.0,48.0,30.22,NW,309,0.0,-999.0,59,-99.99,,,0.00,32,weatherlink.com 1.10,2013-03-20 14:25:00,
2013-03-20 07:40:00,63.3,47.0,30.22,NW,309,0.0,-999.0,56,-99.99,,,0.00,35,weatherlink.com 1.10,2013-03-20 14:40:00,
2013-03-20 07:55:00,64.3,49.0,30.23,NW,309,0.0,-999.0,58,-99.99,,,0.00,46,weatherlink.com 1.10,2013-03-20 14:55:00,
2013-03-20 08:10:00,64.7,48.0,30.24,NW,309,0.0,-999.0,56,-99.99,,,0.00,98,weatherlink.com 1.10,2013-03-20 15:10:00,
2013-03-20 08:25:00,66.0,48.0,30.24,NW,309,0.0,-999.0,53,-99.99,,,0.00,109,weatherlink.com 1.10,2013-03-20 15:25:00,
2013-03-20 08:40:00,67.8,47.0,30.24,NW,309,0.0,-999.0,47,-99.99,,,0.00,174,weatherlink.com 1.10,2013-03-20 15:40:00,
2013-03-20 08:55:00,69.6,47.0,30.24,NW,309,0.0,-999.0,45,-99.99,,,0.00,323,weatherlink.com 1.10,2013-03-20 15:55:00,
2013-03-20 09:10:00,71.3,48.0,30.25,NW,309,0.0,-999.0,43,-99.99,,,0.00,214,weatherlink.com 1.10,2013-03-20 16:10:00,
2013-03-20 09:25:00,72.8,47.0,30.25,NW,309,0.0,-999.0,40,-99.99,,,0.00,197,weatherlink.com 1.10,2013-03-20 16:25:00,
2013-03-20 09:40:00,73.0,51.0,30.25,NW,309,0.0,-999.0,46,-99.99,,,0.00,533,weatherlink.com 1.10,2013-03-20 16:40:00,
2013-03-20 09:55:00,73.4,51.0,30.25,WNW,298,4.0,-999.0,45,-99.99,,,0.00,438,weatherlink.com 1.10,2013-03-20 16:55:00,
2013-03-20 10:10:00,73.7,51.0,30.25,WSW,245,5.0,-999.0,45,-99.99,,,0.00,559,weatherlink.com 1.10,2013-03-20 17:10:00,
2013-03-20 10:25:00,74.6,50.0,30.24,SSW,210,0.0,-999.0,42,-99.99,,,0.00,394,weatherlink.com 1.10,2013-03-20 17:25:00,
2013-03-20 10:40:00,74.2,50.0,30.23,SSE,167,4.0,-999.0,42,-99.99,,,0.00,427,weatherlink.com 1.10,2013-03-20 17:40:00,
2013-03-20 10:55:00,74.5,49.0,30.23,SSE,158,0.0,-999.0,41,-99.99,,,0.00,343,weatherlink.com 1.10,2013-03-20 17:55:00,
2013-03-20 11:10:00,74.6,49.0,30.23,SSE,153,0.0,-999.0,41,-99.99,,,0.00,292,weatherlink.com 1.10,2013-03-20 18:10:00,
2013-03-20 11:25:00,75.2,48.0,30.23,SSE,159,5.0,-999.0,39,-99.99,,,0.00,301,weatherlink.com 1.10,2013-03-20 18:25:00,
2013-03-20 11:40:00,75.5,49.0,30.22,SSE,159,0.0,-999.0,40,-99.99,,,0.00,388,weatherlink.com 1.10,2013-03-20 18:40:00,
2013-03-20 11:55:00,76.6,50.0,30.21,SE,138,4.0,-999.0,39,-99.99,,,0.00,540,weatherlink.com 1.10,2013-03-20 18:55:00,
2013-03-20 12:10:00,77.9,51.0,30.22,SSE,152,0.0,-999.0,39,-99.99,,,0.00,802,weatherlink.com 1.10,2013-03-20 19:10:00,
2013-03-20 12:25:00,79.7,50.0,30.21,SSE,150,0.0,-999.0,36,-99.99,,,0.00,773,weatherlink.com 1.10,2013-03-20 19:25:00,
2013-03-20 12:40:00,81.2,50.0,30.20,SSE,151,0.0,-999.0,34,-99.99,,,0.00,810,weatherlink.com 1.10,2013-03-20 19:40:00,
2013-03-20 12:55:00,81.6,50.0,30.20,SSE,149,0.0,-999.0,33,-99.99,,,0.00,744,weatherlink.com 1.10,2013-03-20 19:55:00,
2013-03-20 13:11:00,82.0,49.0,30.19,SE,130,0.0,-999.0,32,-99.99,,,0.00,800,weatherlink.com 1.10,2013-03-20 20:11:00,
2013-03-20 13:26:00,82.9,49.0,30.18,SSE,152,1.0,-999.0,31,-99.99,,,0.00,666,weatherlink.com 1.10,2013-03-20 20:26:00,
2013-03-20 13:41:00,83.6,47.0,30.16,SSE,154,0.0,-999.0,28,-99.99,,,0.00,756,weatherlink.com 1.10,2013-03-20 20:41:00,
2013-03-20 13:56:00,85.0,47.0,30.16,SSE,153,0.0,-999.0,27,-99.99,,,0.00,561,weatherlink.com 1.10,2013-03-20 20:56:00,
2013-03-20 14:11:00,86.1,48.0,30.15,SSE,153,0.0,-999.0,27,-99.99,,,0.00,566,weatherlink.com 1.10,2013-03-20 21:11:00,
2013-03-20 14:41:00,85.9,46.0,30.14,SSE,152,0.0,-999.0,25,-99.99,,,0.00,390,weatherlink.com 1.10,2013-03-20 21:41:00,
2013-03-20 14:56:00,86.1,46.0,30.13,SSE,152,0.0,-999.0,25,-99.99,,,0.00,410,weatherlink.com 1.10,2013-03-20 21:56:00,
2013-03-20 15:11:00,86.6,45.0,30.12,East,94,0.0,-999.0,23,-99.99,,,0.00,512,weatherlink.com 1.10,2013-03-20 22:11:00,
2013-03-20 15:26:00,87.8,44.0,30.12,East,91,0.0,-999.0,22,-99.99,,,0.00,489,weatherlink.com 1.10,2013-03-20 22:26:00,
2013-03-20 15:41:00,87.9,43.0,30.11,East,91,0.0,-999.0,21,-99.99,,,0.00,633,weatherlink.com 1.10,2013-03-20 22:41:00,
2013-03-20 15:56:00,87.9,46.0,30.11,East,91,0.0,-999.0,23,-99.99,,,0.00,417,weatherlink.com 1.10,2013-03-20 22:56:00,
2013-03-20 16:26:00,86.7,44.0,30.10,North,5,0.0,-999.0,22,-99.99,,,0.00,464,weatherlink.com 1.10,2013-03-20 23:26:00,
2013-03-20 16:41:00,87.1,45.0,30.10,North,355,5.0,-999.0,23,-99.99,,,0.00,457,weatherlink.com 1.10,2013-03-20 23:41:00,
2013-03-20 16:56:00,86.5,43.0,30.10,NNW,342,0.0,-999.0,22,-99.99,,,0.00,387,weatherlink.com 1.10,2013-03-20 23:56:00,
2013-03-20 17:11:00,85.7,44.0,30.10,NNW,345,8.0,-999.0,23,-99.99,,,0.00,315,weatherlink.com 1.10,2013-03-21 00:11:00,
2013-03-20 17:26:00,85.0,43.0,30.10,NNW,346,0.0,-999.0,23,-99.99,,,0.00,216,weatherlink.com 1.10,2013-03-21 00:26:00,
2013-03-20 17:41:00,83.9,42.0,30.10,North,360,5.0,-999.0,23,-99.99,,,0.00,220,weatherlink.com 1.10,2013-03-21 00:41:00,
2013-03-20 17:56:00,81.8,42.0,30.11,NNW,337,0.0,-999.0,24,-99.99,,,0.00,90,weatherlink.com 1.10,2013-03-21 00:56:00,
2013-03-20 18:11:00,80.1,41.0,30.11,NNW,344,0.0,-999.0,25,-99.99,,,0.00,67,weatherlink.com 1.10,2013-03-21 01:11:00,
2013-03-20 18:41:00,78.5,42.0,30.11,North,351,2.0,-999.0,27,-99.99,,,0.00,21,weatherlink.com 1.10,2013-03-21 01:41:00,
2013-03-20 18:56:00,78.1,40.0,30.11,North,9,5.0,-999.0,26,-99.99,,,0.00,5,weatherlink.com 1.10,2013-03-21 01:56:00,
2013-03-20 19:11:00,77.3,40.0,30.11,NNW,342,8.0,-999.0,26,-99.99,,,0.00,0,weatherlink.com 1.10,2013-03-21 02:11:00,
2013-03-20 19:26:00,76.6,40.0,30.11,NNW,334,4.0,-999.0,27,-99.99,,,0.00,0,weatherlink.com 1.10,2013-03-21 02:26:00,
2013-03-20 19:56:00,75.5,43.0,30.11,NNW,340,15.0,-999.0,31,-99.99,,,0.00,0,weatherlink.com 1.10,2013-03-21 02:56:00,
2013-03-20 20:11:00,75.0,43.0,30.11,NW,326,18.0,-999.0,32,-99.99,,,0.00,0,weatherlink.com 1.10,2013-03-21 03:11:00,
2013-03-20 20:26:00,74.4,43.0,30.12,NNW,333,5.0,-999.0,33,-99.99,,,0.00,0,weatherlink.com 1.10,2013-03-21 03:26:00,
2013-03-20 20:41:00,74.1,45.0,30.11,NNW,333,0.0,-999.0,35,-99.99,,,0.00,0,weatherlink.com 1.10,2013-03-21 03:41:00,
2013-03-20 20:56:00,73.4,46.0,30.11,North,360,6.0,-999.0,38,-99.99,,,0.00,0,weatherlink.com 1.10,2013-03-21 03:56:00,
2013-03-20 21:26:00,73.0,47.0,30.11,NW,313,14.0,-999.0,40,-99.99,,,0.00,0,weatherlink.com 1.10,2013-03-21 04:26:00,
2013-03-20 21:56:00,72.8,46.0,30.11,NNW,342,0.0,-999.0,39,-99.99,,,0.00,0,weatherlink.com 1.10,2013-03-21 04:56:00,
2013-03-20 22:11:00,72.5,47.0,30.11,NNW,336,2.0,-999.0,40,-99.99,,,0.00,0,weatherlink.com 1.10,2013-03-21 05:11:00,
2013-03-20 22:26:00,72.0,48.0,30.10,NNW,330,0.0,-999.0,42,-99.99,,,0.00,0,weatherlink.com 1.10,2013-03-21 05:26:00,
2013-03-20 22:41:00,71.5,47.0,30.09,NW,323,2.0,-999.0,42,-99.99,,,0.00,0,weatherlink.com 1.10,2013-03-21 05:41:00,
2013-03-20 22:57:00,71.3,48.0,30.08,NW,323,0.0,-999.0,44,-99.99,,,0.00,0,weatherlink.com 1.10,2013-03-21 05:57:00,
2013-03-20 23:11:00,70.1,48.0,30.09,NW,323,0.0,-999.0,46,-99.99,,,0.00,0,weatherlink.com 1.10,2013-03-21 06:11:00,
2013-03-20 23:26:00,70.3,47.0,30.08,NW,317,0.0,-999.0,44,-99.99,,,0.00,0,weatherlink.com 1.10,2013-03-21 06:26:00,
2013-03-20 23:42:00,70.1,47.0,30.09,NW,311,0.0,-999.0,44,-99.99,,,0.00,0,weatherlink.com 1.10,2013-03-21 06:42:00,
2013-03-20 23:56:00,70.8,48.0,30.09,NNW,331,0.0,-999.0,45,-99.99,,,0.00,0,weatherlink.com 1.10,2013-03-21 06:56:00,